Other Public Products
Issued by NWS Charleston, SC

Current Version | Previous Version | Graphics & Text | Print | Product List | Glossary On
Versions: 1 2 3 4 5 6 7 8 9 10 11 12 13 14 15 16 17 18 19 20 21 22 23 24 25 26 27 28 29 30 31 32 33 34 35 36 37 38 39 40 41 42 43 44 45 46 47 48 49 50
000
FPUS82 KCHS 171112
OPUCHS

TEST...KCHS/KSAV Gateway Observations...TEST
National Weather Service Charleston SC
600 AM EST SAT FEB 17 2018

NOTE: "fair" indicates few or no clouds below 12,000 feet with no
significant weather and/or obstructions to visibility.

SCZ050-WAZ558-NCZ071-TXZ119-213-PAZ071-DCZ001-FLZ074-172-MI076-
NYZ176-178-MAZ016-IL014-TNZ027-NJZ106-GAZ044-MD014-171200-

...Gateway Observations for Charleston International...

CITY           SKY/WX    TMP DP  RH WIND       PRES   REMARKS
Chas Airport   CLOUDY    65  50  58 E8        30.17R
Seattle        CLOUDY    45  43  93 SW12      30.03F
Charlotte      MOCLDY    54  38  54 NE9       30.22R
Dallas DFW     DRIZZLE   43  40  89 N7        30.09F FOG
Dallas Love    DRIZZLE   42  39  89 NW9       30.11F FOG
Philladelphia  FAIR      30  14  51 N10       30.38R WCI  21
Wash National  FAIR      36  23  59 NE12      30.37R WCI  28
Baltimore      MOCLDY    31  22  69 N3        30.35S
Miami          FAIR      66  63  90 CALM      30.17S
Detroit        FAIR      19  16  88 S5        30.22F WCI  12
Newark         FAIR      29  14  53 NW9       30.39R WCI  20
Laguardia      FAIR      31  16  54 N8        30.38R WCI  23
J F K          FAIR      29  16  58 N9        30.39R WCI  20
Boston Logan   FAIR      28  12  51 NW10      30.35R WCI  19
Ft. Lauderdale FAIR      66  66 100 CALM      30.16S
Chicago O`Hare MOCLDY    18   9  68 S6        30.15S WCI  10
Chicago Midway MOCLDY    17  10  74 S5        30.16F WCI  10
Houston Bush   CLOUDY    63  61  93 CALM      30.01F
Houston Hobby  CLOUDY    67  67 100 S9        30.01F FOG
Nashville      CLOUDY    42  37  82 E6        30.13F
Atlanta        CLOUDY    52  48  86 CALM      30.13R

$$

GAZ044-118-TXZ119-213-NCZ071-DCZ001-MDZ014-506-PAZ021-071-NJZ106-
NYZ176-178-MAZ106-OHZ011-021-055-MIZ076-KYZ091-ILZ014-INZ047-
MNZ060-ONZ431-171200-

...Gateway Observations for Savannah International...

CITY           SKY/WX    TMP DP  RH WIND       PRES   REMARKS
Savannah Arpt  FAIR      60  59  96 CALM      30.14S
Atlanta        CLOUDY    52  48  86 CALM      30.13R
Charlotte      MOCLDY    54  38  54 NE9       30.22R
Dallas DFW     DRIZZLE   43  40  89 N7        30.09F FOG
Houston Bush   CLOUDY    63  61  93 CALM      30.01F
Wash National  FAIR      36  23  59 NE12      30.37R WCI  28
Wash Dulles    FAIR      31  23  72 N8        30.35S WCI  23
Baltimore      MOCLDY    31  22  69 N3        30.35S
Philadelphia   FAIR      30  14  51 N10       30.38R WCI  21
Newark         FAIR      29  14  53 NW9       30.39R WCI  20
Laguardia      FAIR      31  16  54 N8        30.38R WCI  23
J F K          FAIR      29  16  58 N9        30.39R WCI  20
Boston         FAIR      28  12  51 NW10      30.35R WCI  19
Pittsburg      CLOUDY    28  19  69 E6        30.27F WCI  22
Akron          CLOUDY    28  18  66 S9        30.24F WCI  19
Cleveland      CLOUDY    30  21  69 S3        30.27F
Cincinnati     CLOUDY    31  28  89 E6        30.20S WCI  25
Columbus       CLOUDY    31  26  80 SE7       30.24F WCI  24
Detroit        FAIR      19  16  88 S5        30.22F WCI  12
Chicago O`Hare MOCLDY    18   9  68 S6        30.15S WCI  10
Minneapolis    CLOUDY    24  14  65 SW9       29.88F WCI  14
Indianapolis   FAIR      26  22  84 CALM      30.19F
Toronto Canada CLEAR     21  14  73 S6        30.25R WCI  14

$$




USA.gov is the U.S. government's official web portal to all federal, state and local government web resources and services.